Location: *
(43.4667°N, 11.6833°E)
Time: 20:27:02
(UTC+00:00)

NOSS 3-1 (A) - Pass Details

Date: 19 July 2019
Orbit: 774 x 1439 km, 63.4° (Epoch: 17 August)

Event Time Altitude Azimuth Distance (km) Brightness Sun altitude
Exits shadow 20:53:29 22° 181° (S) 1,725 4.4 -17.5°
Maximum altitude 20:56:46 48° 118° (ESE) 1,122 3.5 -17.9°
Drops below altitude 10° 21:02:42 10° 45° (NE) 2,712 6.0 -18.5°
Sets 21:05:32 0° 41° (NE) 3,767 6.8 -18.8°
